Location: Platte
(43.3870°N, 98.8440°W)
Time: 16:26:09
(UTC-05:00)

Daily predictions for brighter satellites

Satellite Brightness Start Highest point End
(mag) Time Altitude Azimuth Time Altitude Azimuth Time Altitude Azimuth
Helios 1A 3.5 20:58:04 10° SE 21:02:04 43° ENE 21:06:07 10° N
Cosmos 1315 Rocket 3.0 20:58:16 10° NNW 21:02:22 77° W 21:06:22 10° S
Resurs 1-3 3.7 21:00:18 10° SSE 21:04:41 88° W 21:09:07 10° NNW
ATLAS 5 CENTAUR R/B 3.2 20:59:50 10° NNW 21:05:19 39° NE 21:11:16 10° ESE
CZ-2D R/B 3.3 21:02:43 10° SSE 21:06:37 88° WSW 21:10:32 10° NNW
Cosmos 1655 Rocket 4.4 21:00:42 10° N 21:06:54 48° ENE 21:12:59 10° SSE
SL-16 R/B 2.3 21:03:26 10° S 21:08:57 56° ESE 21:14:29 10° NNE
Cosmos 1933 4.3 21:07:17 10° SSE 21:10:42 27° E 21:14:06 10° NNE
USA 267 3.6 21:05:13 10° NE 21:11:45 75° NW 21:18:17 10° WSW
Cosmos 1408 2.7 21:08:12 10° N 21:11:51 55° E 21:15:26 10° SSE
Cosmos 1503 Rocket 4.0 21:07:29 10° NNW 21:12:46 78° ENE 21:17:58 10° SSE
BREEZE-M DEB (TANK) 4.2 21:10:47 10° WNW 21:15:08 75° NNE 21:32:45 10° E
Spot 2 Rocket 3.9 21:12:39 10° S 21:17:43 66° WSW 21:22:47 10° NNW
Cosmos 1354 Rocket 4.0 21:12:44 10° NNW 21:18:03 87° ENE 21:23:18 10° SSE
Cosmos 2242 Rocket 3.6 21:16:20 10° S 21:20:48 67° E 21:25:15 10° NNE
Cosmos 968 Rocket 4.4 21:19:11 10° N 21:23:51 32° ENE 21:27:53 13° ESE
CZ-4B DEB 4.5 21:21:21 10° SSE 21:24:53 71° ENE 21:28:26 10° N
ALOS 4.5 21:22:41 10° SSW 21:26:36 26° W 21:30:31 10° NW
Cosmos 1867 4.3 21:22:11 10° NNW 21:27:21 41° NE 21:31:43 14° ESE
Cosmos 1862 3.4 21:24:31 10° N 21:28:30 59° E 21:32:29 10° SSE
Meteor 1-29 3.2 21:25:15 10° NNE 21:28:39 48° E 21:32:00 10° S
Cosmos 1844 Rocket 4.4 21:28:09 10° N 21:32:04 19° NE 21:35:50 10° E
Cosmos 2279 Rocket 4.0 21:25:59 10° S 21:32:08 66° E 21:38:18 10° NNE
H-2A R/B 4.0 21:31:19 10° E 21:33:34 13° ENE 21:35:49 10° NNE
Envisat 3.0 21:32:40 10° SSE 21:37:45 85° ENE 21:42:51 10° NNW
Resurs 01 Rocket 3.4 21:36:58 10° SSW 21:40:57 32° W 21:44:57 10° NNW
CZ-4C R/B 4.4 21:40:04 10° NNW 21:45:10 22° NNE 21:50:43 10° ENE
Cosmos 1428 Rocket 4.4 21:39:28 10° N 21:45:37 80° E 21:51:44 10° S
Cosmos 1939 Rocket 2.8 21:41:49 10° SSE 21:45:50 86° E 21:49:51 10° NNW
FALCON 9 R/B 2.5 21:45:13 10° SSW 21:46:08 12° S 21:46:08 12° S
USA 234 3.3 21:41:13 15° SE 21:46:45 87° NE 21:53:20 10° NW
YAOGAN 6 2.9 21:44:48 19° SE 21:47:07 49° ENE 21:50:37 10° N
OAO 3 Rocket 4.3 21:44:26 10° WSW 21:48:41 30° S 21:51:07 20° SE
Helios 1B rocket 2.7 21:47:06 10° N 21:51:12 70° WNW 21:55:16 10° SSW
Lacrosse 4 Rocket 2.7 21:47:59 10° NW 21:52:02 39° WSW 21:56:08 10° S
Cosmos 2219 Rocket 4.0 21:54:47 12° E 21:54:47 12° E 21:56:10 10° ENE
H-2A R/B 4.2 21:57:30 11° ENE 21:58:37 12° ENE 22:00:09 10° NE
Terra 3.9 21:57:33 11° ENE 21:59:03 12° ENE 22:00:52 10° NE
Sich 1 Rocket 3.7 21:54:38 10° N 21:59:04 58° E 22:01:46 23° SSE
Abrixas rocket 3.7 21:56:07 10° WNW 21:59:10 34° N 22:02:05 11° ENE
Cosmos 1908 Rocket 3.5 21:57:40 10° N 22:01:59 62° E 22:04:26 24° SSE
Meteor 2-10 Rocket 3.7 21:57:40 10° S 22:03:27 69° E 22:09:12 10° NNE
Atlas Centaur 2 3.7 21:59:21 10° SW 22:05:15 29° S 22:08:19 22° SE
ERS-1 Rocket 2.9 22:02:05 20° SSE 22:05:38 75° ENE 22:10:40 10° N
SeaSat 1 3.1 22:10:54 26° ESE 22:13:09 41° NE 22:17:47 10° NNW
Cosmos 2263 Rocket 2.7 22:08:39 10° NNW 22:14:05 55° WSW 22:18:24 16° S
Cosmos 1782 Rocket 3.8 22:12:01 10° N 22:16:18 51° ENE 22:17:44 36° SE
USA 245 4.4 22:14:54 28° SE 22:17:41 52° ENE 22:22:26 10° N
Cosmos 2237 4.4 22:13:13 10° S 22:18:41 49° ESE 22:24:12 10° NE
MOS 1-B Rocket 4.1 22:16:15 27° SE 22:19:13 52° ENE 22:24:39 10° N
SPOT 1/Viking Rocket 4.2 22:18:47 29° ESE 22:20:43 41° ENE 22:25:35 10° N
Cosmos 2322 Rocket 3.7 22:18:37 10° SW 22:23:49 39° WNW 22:29:05 10° NNE
Okean 2 Rocket 3.5 22:21:12 10° N 22:25:35 47° ENE 22:26:36 39° ESE
Meteor 1-14 Rocket 4.2 22:21:52 10° N 22:27:34 84° ENE 22:30:46 28° SSE
Milstar 3 4.2 22:22:48 10° WSW 22:27:40 19° SSW 22:29:31 17° S
NOSS 3-1 (C) 4.3 22:28:28 26° E 22:28:28 26° E 22:32:52 10° NE
COSMOS 2428 3.0 22:25:22 28° SSE 22:27:48 44° ESE 22:33:12 10° NE
USA 229 DEB 3.6 22:25:23 10° SSW 22:32:09 72° ESE 22:39:05 10° NE
USA 229 3.6 22:25:30 10° SSW 22:32:16 71° ESE 22:39:11 10° NE
Cosmos 1777 Rocket 4.1 22:27:17 10° NNW 22:32:33 62° ENE 22:34:19 40° SE
Cosmos 2360 Rocket 2.3 22:26:55 10° SSW 22:32:34 79° WNW 22:38:17 10° NNE
Okean 1-7 3.0 22:33:02 45° SSE 22:34:13 65° E 22:38:36 10° NNE
Meteor 1-25 Rocket 4.1 22:30:12 10° N 22:35:48 72° ENE 22:38:00 37° SSE
Cosmos 1844 4.2 22:36:12 10° NNW 22:41:39 45° ENE 22:43:17 36° E
SPOT 5 2.7 22:41:19 43° SSE 22:42:55 89° ENE 22:47:35 10° NNW
NOAA 11 4.3 22:40:21 29° S 22:43:12 74° WSW 22:48:43 10° NNW
MetOp-B 4.2 22:41:24 31° S 22:44:00 74° WSW 22:49:22 10° NNW
Cosmos 1606 3.9 22:45:39 30° NE 22:45:39 30° NE 22:48:04 10° NNE
Cosmos 2322 3.9 22:39:51 10° SSW 22:45:33 73° WNW 22:51:17 10° NNE
ASTEX 1 4.2 22:49:14 35° E 22:49:32 35° ENE 22:54:03 10° NNE
ATLAS 5 CENTAUR R/B 3.1 22:44:25 10° NW 22:50:13 48° WSW 22:53:10 29° S
Meteor 1-20 Rocket 4.1 22:44:43 10° N 22:50:19 84° E 22:52:15 43° SSE
Cosmos 1703 Rocket 4.1 22:47:34 21° SSW 22:50:20 56° W 22:54:43 10° N
Nimbus 7 Rocket 4.3 22:47:00 10° NNE 22:52:57 73° ESE 22:55:41 34° S
SL-16 R/B 4.5 22:48:46 10° WSW 22:53:24 25° NW 22:58:04 10° N
ARGOS 3.2 22:56:44 40° S 22:58:40 72° WSW 23:04:04 10° NNW
Cosmos 2151 Rocket 3.9 22:55:10 10° N 22:59:21 51° ENE 22:59:21 51° ENE
Meteor 2-6 Rocket 4.3 23:03:04 51° SSE 23:04:25 66° E 23:10:20 10° NNE
CARTOSAT-1 4.2 23:06:18 44° ENE 23:06:18 44° ENE 23:10:06 10° N
Cosmos 2221 Rocket 4.3 23:04:22 31° SW 23:06:09 51° WNW 23:10:30 10° N
Cosmos 2333 4.1 23:05:10 37° SSW 23:07:34 82° ESE 23:13:22 10° NNE
Cosmos 2333 Rocket 2.7 23:08:25 42° E 23:08:25 42° E 23:13:10 10° NE
Cosmos 2237 Rocket 3.4 23:11:11 28° ENE 23:11:11 28° ENE 23:14:36 10° NE
H-2A R/B 1.8 23:11:37 66° S 23:12:19 84° WSW 23:17:17 10° NNW
Cosmos 2278 Rocket 2.7 23:07:27 10° NNW 23:12:52 44° ENE 23:13:40 41° E
SL-08 RB Rocket 4.1 23:13:40 51° SW 23:14:20 57° W 23:18:51 10° NNW
H-2A R/B 4.2 22:00:37 10° WSW 23:14:26 41° SSW 23:17:35 34° S
Cosmos 1844 Rocket 2.6 23:11:01 10° NNW 23:16:36 78° WSW 23:17:30 62° S
Cosmos 1782 3.1 23:17:40 63° WNW 23:17:40 63° WNW 23:21:26 10° N
DMSP B5D2-2 4.0 23:12:17 10° NNE 23:17:33 66° ESE 23:17:36 66° ESE
Okean 1 Rocket 4.4 23:16:00 10° N 23:19:04 29° NE 23:19:04 29° NE
Landsat 7 3.7 23:20:50 84° SSW 23:20:57 86° WSW 23:25:45 10° NNW
USA 234 4.5 23:28:34 24° SSW 23:30:14 27° SW 23:35:38 10° WNW
NOSS 0 Rocket 4.0 23:30:39 58° E 23:30:39 58° E 23:36:21 10° NNE
IGS 5A 4.1 23:33:02 53° N 23:33:02 53° N 23:36:17 10° N
Cosmos 1570 Rocket 3.9 23:32:58 88° SE 23:32:59 88° ESE 23:38:18 10° NNE
H-2A R/B 2.4 23:34:37 62° NW 23:34:37 62° NW 23:38:19 10° NNW
CZ-4C R/B 3.0 23:28:02 10° NNW 23:35:03 65° NE 23:37:06 48° ESE
Cosmos 1346 Rocket 4.2 23:36:52 34° NNE 23:36:52 34° NNE 23:39:12 10° NNE
Terra 1.8 23:36:26 77° NNW 23:36:26 77° NNW 23:40:52 10° NNW
Cosmos 2219 Rocket 2.0 23:36:26 76° SSW 23:36:54 89° WNW 23:42:35 10° NNE
Cosmos 1553 Rocket 3.9 23:37:14 67° S 23:38:10 85° E 23:44:25 10° N
SL-08 R/B 4.3 23:33:55 10° N 23:40:06 88° W 23:40:48 72° S
Cosmos 2208 Rocket 3.9 23:41:00 87° NW 23:41:00 87° NW 23:46:20 10° NNE
Meteor 1-27 Rocket 3.6 23:42:16 85° SSE 23:42:26 88° E 23:48:03 10° N
Spot 4 4.3 23:46:55 55° NNE 23:46:55 55° NNE 23:50:53 10° N
Cosmos 1937 Rocket 4.2 23:42:16 10° N 23:46:53 43° NE 23:46:53 43° NE
SeaSat 1 3.8 23:50:41 29° WSW 23:50:46 29° WSW 23:55:02 10° NW
Timation 1 Rocket 4.3 23:47:33 10° NNW 23:53:32 68° ENE 23:53:38 68° ENE
